Location: Umburanas
(4.5000°S, 37.9667°W)
Time: 09:49:42
(UTC+00:00)

Cosmos 724 - Pass Details

Date: 19 November 2019
Orbit: 861 x 934 km, 65.6° (Epoch: 06 December)

Event Time Altitude Azimuth Distance (km) Brightness Sun altitude
Rises 22:20:03 0° 336° (NNW) 3,418 7.4 -26.9°
Reaches altitude 10° 22:22:30 10° 334° (NNW) 2,486 6.6 -27.5°
Maximum altitude 22:28:14 75° 249° (WSW) 894 4.3 -28.8°
Drops below altitude 10° 22:34:03 10° 164° (SSE) 2,522 6.7 -30.1°
Sets 22:36:34 0° 162° (SSE) 3,472 7.5 -30.7°
